Regional Weather Roundup
Issued by NWS

Home | Current Version | Previous Version | Graphics & Text | Print | Product List | Glossary On
Versions: 1 2 3 4 5 6 7 8 9 10 11 12 13 14 15 16 17 18 19 20 21 22 23 24 25 26 27 28 29 30 31 32 33 34 35 36 37 38 39 40 41 42 43 44 45 46 47 48 49 50
000
ASUS43 KLSX 291507
RWRMO

WEATHER SUMMARY FOR MISSOURI
NATIONAL WEATHER SERVICE SPRINGFIELD MO
1000 AM CDT SAT APR 29 2017

NOTE: "FAIR" INDICATES FEW OR NO CLOUDS BELOW 12,000 FEET WITH NO
       SIGNIFICANT WEATHER AND/OR OBSTRUCTIONS TO VISIBILITY.
       CURRENT SKY AND/OR WEATHER CONDITIONS ARE NOT AVAILABLE FOR
       CHILLICOTHE AND FARMINGTON.

MOZ001>031-035>038-043-044-053-054-291600-
...NORTHERN AND WESTERN MISSOURI...

CITY           SKY/WX    TMP DP  RH WIND       PRES   REMARKS
KANSAS CTY INT RAIN      46  45  96 NE18      29.88R FOG
KANSAS C DTWN  LGT RAIN  48  46  93 NE10      29.89S
LEE`S SUMMIT   LGT RAIN  48  47  96 NE23G29   29.85S
ST JOSEPH      LGT RAIN  45  45 100 NE15      29.95R
CHILLICOTHE      N/A     48  47  96 NE15G23   29.95F
KIRKSVILLE     RAIN      48  31  51 NE16      30.01R

$$
MOZ066>068-077>081-088>096-101>105-291600-
...SOUTHWEST MISSOURI...

CITY           SKY/WX    TMP DP  RH WIND       PRES   REMARKS
SPRINGFIELD    TSTM      60  59  96 NW13      29.73S FOG
JOPLIN         TSTM      57  57 100 N10       29.66F VSB 3/4
BRANSON        LGT RAIN  64  64 100 E10       29.72S VSB 1/8

$$
MOZ032>034-039>042-045>050-055>058-069>072-291600-
...CENTRAL MISSOURI...

CITY           SKY/WX    TMP DP  RH WIND       PRES   REMARKS
COLUMBIA       RAIN      57  56  96 NE10      29.87R FOG
JEFFERSON CITY TSTM      60  56  86 E15G21    29.86R
ROLLA          LGT RAIN  59 N/A N/A E18G25    29.83F
SEDALIA        TSTM      53  53 100 NE14      29.85F FOG
WHITEMAN AFB   TSTM      50  50 100 NE14G22   29.83R
OSAGE BEACH    TSTM      58  57  97 E13       29.82F FOG

$$
MOZ051-052-059>065-291600-
...EAST CENTRAL MISSOURI...

CITY           SKY/WX    TMP DP  RH WIND       PRES   REMARKS
ST LOUIS INTL  TSTM      60  57  89 NE13      29.94S FOG
SPIRIT OF STL  TSTM      59  59 100 S3        29.96R FOG
ST CHARLES     RAIN      58  58 100 NE16      29.92F FOG

$$
MOZ072>076-082>087-097>100-106>115-291600-
...SOUTH CENTRAL AND SOUTHEAST MISSOURI...

CITY           SKY/WX    TMP DP  RH WIND       PRES   REMARKS
CAPE GIRARDEAU CLOUDY    70  66  87 E6        29.92F
FARMINGTON     CLOUDY    63  61  93 W6        29.92R
POPLAR BLUFF   CLOUDY    75  70  84 SE14      29.87F
WEST PLAINS    CLOUDY    63  61  93 E7        29.82F

$$




USA.gov is the U.S. government's official web portal to all federal, state and local government web resources and services.